2021/02/26,53800,53800,53800,53800
2021/03/01,53800,53800,53800,53800
2021/03/02,53800,53800,53800,53800
2021/03/03,53800,53800,53800,53800
2021/03/04,53800,53800,53800,53800
2021/03/05,55700,55700,55700,55700
2021/03/08,55700,55700,55700,55700
2021/03/09,55700,55700,55700,55700
2021/03/10,55700,55700,55700,55700
2021/03/11,55700,55700,55700,55700
2021/03/12,55700,55700,55700,55700
2021/03/15,55700,55700,55700,55700
2021/03/16,55700,55700,55700,55700
2021/03/17,55700,55700,55700,55700
2021/03/18,55700,55700,55700,55700
2021/03/19,55700,55700,55700,55700
2021/03/22,55700,55700,55700,55700
2021/03/23,55700,55700,55700,55700
2021/03/24,56300,56300,56000,56000
2021/03/25,56000,56000,56000,56000
2021/03/26,56000,56000,56000,56000
2021/03/29,56000,56000,56000,56000
2021/03/30,56000,56000,56000,56000
2021/03/31,56000,56000,56000,56000
2021/04/01,56000,56000,56000,56000
2021/04/02,56000,56000,56000,56000
2021/04/05,56700,56700,56700,56700
2021/04/06,56700,56700,56700,56700
2021/04/07,56700,56700,56700,56700
2021/04/08,56700,56700,56700,56700
2021/04/09,56700,56700,56700,56700
2021/04/12,56700,56700,56700,56700
2021/04/13,56700,56700,56700,56700
2021/04/14,56700,56700,56700,56700
2021/04/15,56700,56700,56700,56700
2021/04/16,56700,56700,56700,56700
2021/04/19,56700,56700,56700,56700
2021/04/20,56700,56700,56700,56700
2021/04/21,56700,56700,56700,56700
2021/04/22,56700,56700,56700,56700
2021/04/23,56700,56700,56700,56700
2021/04/26,56700,56700,56700,56700
2021/04/27,56700,56700,56700,56700
2021/04/28,56700,56700,56700,56700
2021/04/30,56700,56700,56700,56700
2021/05/06,56700,56700,56700,56700
2021/05/07,56700,56700,56700,56700
2021/05/10,56700,56700,56700,56700
2021/05/11,56700,56700,56700,56700
2021/05/12,56700,56700,56700,56700
2021/05/13,57700,57700,57700,57700
2021/05/14,57700,57700,57700,57700
2021/05/17,57700,57700,57700,57700
2021/05/18,57700,57700,57700,57700
2021/05/19,57700,57700,57700,57700
2021/05/20,57700,57700,57700,57700
2021/05/21,57700,57700,57700,57700
2021/05/24,57700,57700,57700,57700
2021/05/25,58800,58800,58800,58800
2021/05/26,58800,58800,58800,58800
2021/05/27,58800,58800,58800,58800
2021/05/28,58800,58800,58800,58800
2021/05/31,58800,58800,58800,58800
2021/06/01,59600,59600,59600,59600
2021/06/02,59600,59600,59600,59600
2021/06/03,60700,60700,60700,60700
2021/06/04,60700,60700,60700,60700
2021/06/07,60700,60700,60700,60700
2021/06/08,60700,60700,60700,60700
2021/06/09,61700,61700,61700,61700
2021/06/10,61700,61700,61700,61700
2021/06/11,61700,61700,61700,61700
2021/06/14,61700,61700,61700,61700
2021/06/15,61700,61700,61700,61700
2021/06/16,61700,61700,61700,61700
2021/06/17,61700,61700,61700,61700
2021/06/18,61700,61700,61700,61700
2021/06/21,61700,61700,61700,61700
2021/06/22,62900,62900,62900,62900
2021/06/23,63100,63300,63100,63300
2021/06/24,63300,63300,63300,63300
2021/06/25,63300,63300,63300,63300
2021/06/28,63300,63300,63300,63300
2021/06/29,63300,63300,63300,63300
2021/06/30,63300,63300,63300,63300
2021/07/01,64000,64000,64000,64000
2021/07/02,64000,64000,64000,64000
2021/07/05,65300,65300,65300,65300
2021/07/06,66300,66300,66300,66300
2021/07/07,66300,66300,66300,66300
2021/07/08,66300,66300,66300,66300
2021/07/09,66300,66300,66300,66300
2021/07/12,66300,66300,66300,66300
2021/07/13,66300,66300,66300,66300
2021/07/14,66300,66300,66300,66300
2021/07/15,66300,66300,66300,66300
2021/07/16,66300,66300,66300,66300
2021/07/20,64000,64000,64000,64000
2021/07/21,63500,63500,63500,63500
2021/07/26,65100,65200,65100,65200
2021/07/27,65300,65300,65300,65300
2021/07/28,65300,65300,65300,65300
2021/07/29,65300,65300,65300,65300
2021/07/30,65300,65300,65300,65300
2021/08/02,65300,65300,65300,65300
2021/08/03,65300,65300,65300,65300
2021/08/04,65300,65300,65300,65300
2021/08/05,65300,65300,65300,65300
2021/08/06,65500,65500,65500,65500
2021/08/10,64400,64400,63800,64000
2021/08/11,64500,64500,64500,64500
2021/08/12,64500,64800,64500,64800
2021/08/13,64500,64500,64500,64500
2021/08/16,64100,64100,64000,64000
2021/08/17,64000,64000,64000,64000
2021/08/18,63900,63900,63500,63500
2021/08/19,63600,63600,63000,63000
2021/08/20,62000,62000,62000,62000
2021/08/23,62000,62300,62000,62300
2021/08/24,63000,63500,63000,63500
2021/08/25,63810,64000,63800,63950
